contact:dominique.lefevre@mio.osupytheas.fr, maurice.libes@osupytheas.fr, didier.mallarino@osupytheas.fr
Project:EMSO http://www.emso-fr.org/EMSO-France
Depth: 2436.0 m
Title:EMSO Ligure Ouest : Data MII capteur AQUADOPP
Date,Latitude,Longitude,X_East,Y_North,Z_Up,Amplitude_X,Amplitude_Y,Amplitude_Z,Batterie,SoundSpeed,Heading,Pitch,Roll,Pressure,TIS,Speed,Direction
, degrees North, degrees East, m.s-1, m.s-1,m.s-1, 1, 1, 1, Volt, m.s-1, degree, degree, degree, dbar, degree_C, m.s-1, degree
2021-10-19T00:04:03,42.805,6.029,0.029,-0.038,-0.019,100.0,101.0,100.0,13.3,1505.2,325.4,-0.7,1.8,2470.727,13.28,0.047,142.7
2021-10-19T00:07:03,42.805,6.029,0.048,-0.037,0.0,101.0,102.0,99.0,13.4,1505.2,330.9,-0.8,1.8,2470.719,13.28,0.06,127.6
2021-10-19T00:10:03,42.805,6.029,0.049,-0.023,0.019,101.0,101.0,100.0,13.4,1505.2,328.5,-0.8,1.9,2470.691,13.28,0.054,115.1
2021-10-19T00:13:03,42.805,6.029,0.049,-0.005,0.007,101.0,101.0,100.0,13.4,1505.2,325.7,-0.7,1.8,2470.68,13.28,0.049,95.8
2021-10-19T00:16:03,42.805,6.029,0.028,-0.002,-0.014,101.0,101.0,100.0,13.4,1505.2,326.9,-0.7,1.8,2470.714,13.28,0.028,94.1
2021-10-19T00:19:03,42.805,6.029,0.067,-0.002,0.015,99.0,101.0,101.0,13.4,1505.2,326.4,-0.8,1.9,2470.669,13.28,0.067,91.7
2021-10-19T00:22:03,42.805,6.029,0.05,-0.033,-0.035,101.0,101.0,99.0,13.4,1505.2,330.7,-0.7,1.9,2470.661,13.28,0.059,123.4
2021-10-19T00:25:03,42.805,6.029,0.024,-0.031,-0.034,100.0,100.0,100.0,13.4,1505.2,329.7,-0.7,1.8,2470.694,13.28,0.039,142.3
2021-10-19T00:28:03,42.805,6.029,0.02,-0.022,-0.025,101.0,100.0,100.0,13.4,1505.2,331.6,-0.8,1.8,2470.622,13.28,0.029,137.7
2021-10-19T00:31:03,42.805,6.029,0.057,-0.018,0.003,101.0,100.0,101.0,13.4,1505.2,325.2,-0.8,1.8,2470.637,13.28,0.059,107.5
2021-10-19T00:34:03,42.805,6.029,0.041,-0.03,-0.016,99.0,101.0,100.0,13.4,1505.2,330.1,-0.7,1.8,2470.665,13.28,0.05,126.2
2021-10-19T00:37:03,42.805,6.029,0.039,-0.037,-0.025,101.0,103.0,99.0,13.4,1505.2,327.7,-0.7,1.8,2470.632,13.28,0.053,133.5
2021-10-19T00:40:03,42.805,6.029,0.019,-0.042,-0.048,100.0,101.0,100.0,13.3,1505.2,327.9,-0.8,1.8,2470.652,13.28,0.046,155.7
2021-10-19T00:43:03,42.805,6.029,0.055,-0.034,-0.033,102.0,101.0,100.0,13.4,1505.2,328.1,-0.7,1.8,2470.62,13.28,0.064,121.7
2021-10-19T00:46:03,42.805,6.029,0.034,-0.027,-0.034,100.0,102.0,100.0,13.3,1505.2,328.0,-0.8,1.8,2470.643,13.28,0.043,128.5
2021-10-19T00:49:03,42.805,6.029,0.055,-0.008,0.001,100.0,102.0,100.0,13.4,1505.2,330.0,-0.7,1.8,2470.656,13.28,0.055,98.3
2021-10-19T00:52:03,42.805,6.029,0.062,-0.025,-0.006,100.0,101.0,100.0,13.4,1505.2,329.8,-0.8,1.8,2470.669,13.28,0.066,112.0
2021-10-19T00:55:03,42.805,6.029,0.039,-0.008,-0.011,101.0,100.0,100.0,13.3,1505.2,329.3,-0.7,1.8,2470.674,13.28,0.039,101.6
2021-10-19T00:58:03,42.805,6.029,0.025,-0.045,-0.063,101.0,100.0,100.0,13.3,1505.2,328.6,-0.8,1.8,2470.619,13.28,0.051,150.9
2021-10-19T01:04:03,42.805,6.029,0.023,-0.028,-0.038,103.0,104.0,103.0,13.4,1505.2,326.9,-0.8,1.8,2470.659,13.28,0.036,140.6
2021-10-19T01:07:03,42.805,6.029,0.014,-0.021,-0.023,101.0,103.0,101.0,13.3,1505.2,329.6,-0.7,1.8,2470.649,13.28,0.025,146.3
2021-10-19T01:10:03,42.805,6.029,0.023,-0.022,-0.009,100.0,100.0,100.0,13.4,1505.2,330.3,-0.8,1.8,2470.682,13.28,0.031,133.7
2021-10-19T01:13:03,42.805,6.029,0.056,-0.043,-0.041,101.0,101.0,99.0,13.4,1505.2,329.7,-0.7,1.8,2470.709,13.28,0.07,127.5
2021-10-19T01:16:03,42.805,6.029,0.063,-0.038,0.003,102.0,101.0,99.0,13.3,1505.2,330.2,-0.8,1.8,2470.664,13.28,0.073,121.1
2021-10-19T01:19:03,42.805,6.029,0.036,-0.015,-0.012,102.0,99.0,101.0,13.4,1505.2,327.4,-0.7,1.8,2470.631,13.28,0.039,112.6
2021-10-19T01:22:03,42.805,6.029,0.051,-0.043,-0.006,101.0,101.0,99.0,13.4,1505.2,330.4,-0.7,1.8,2470.652,13.28,0.066,130.1
2021-10-19T01:25:03,42.805,6.029,0.018,-0.009,-0.012,100.0,101.0,100.0,13.3,1505.2,329.9,-0.8,1.8,2470.631,13.28,0.02,116.6
2021-10-19T01:28:03,42.805,6.029,0.025,-0.029,-0.005,100.0,102.0,100.0,13.4,1505.2,328.0,-0.8,1.8,2470.671,13.28,0.038,139.2
2021-10-19T01:31:03,42.805,6.029,0.055,-0.023,-0.002,100.0,100.0,100.0,13.3,1505.2,328.7,-0.7,1.8,2470.629,13.28,0.059,112.7
2021-10-19T01:34:03,42.805,6.029,0.051,-0.024,0.008,102.0,101.0,98.0,13.4,1505.2,328.6,-0.8,1.8,2470.639,13.28,0.056,115.2
2021-10-19T01:37:03,42.805,6.029,0.061,-0.052,-0.019,100.0,102.0,100.0,13.4,1505.2,329.0,-0.7,1.8,2470.683,13.28,0.08,130.4
2021-10-19T01:40:03,42.805,6.029,0.035,-0.029,-0.022,100.0,101.0,100.0,13.4,1505.2,328.9,-0.8,1.8,2470.634,13.28,0.045,129.6
2021-10-19T01:43:03,42.805,6.029,0.038,-0.039,-0.023,101.0,101.0,99.0,13.4,1505.2,325.7,-0.8,1.8,2470.663,13.28,0.054,135.7
2021-10-19T01:46:03,42.805,6.029,0.036,-0.018,-0.005,100.0,101.0,100.0,13.4,1505.2,330.8,-0.8,1.8,2470.624,13.28,0.04,116.6
2021-10-19T01:49:03,42.805,6.029,0.047,-0.026,-0.011,100.0,101.0,100.0,13.4,1505.2,329.7,-0.8,1.8,2470.655,13.28,0.053,118.9
2021-10-19T01:52:03,42.805,6.029,0.032,-0.043,0.0,101.0,101.0,100.0,13.3,1505.2,330.7,-0.7,1.8,2470.644,13.28,0.053,143.3
2021-10-19T01:55:03,42.805,6.029,0.025,-0.032,-0.006,101.0,100.0,100.0,13.4,1505.2,327.1,-0.7,1.8,2470.665,13.28,0.04,142.0
2021-10-19T01:58:03,42.805,6.029,0.058,-0.017,0.02,101.0,100.0,100.0,13.3,1505.2,329.2,-0.7,1.8,2470.681,13.28,0.06,106.3
2021-10-19T02:04:03,42.805,6.029,0.044,-0.037,-0.028,100.0,100.0,101.0,13.4,1505.2,329.0,-0.8,1.8,2470.664,13.28,0.057,130.1
2021-10-19T02:07:03,42.805,6.029,0.043,-0.021,0.005,100.0,101.0,100.0,13.3,1505.2,327.4,-0.7,1.8,2470.648,13.28,0.047,116.0
2021-10-19T02:10:03,42.805,6.029,0.035,-0.036,-0.004,100.0,101.0,100.0,13.3,1505.2,328.3,-0.7,1.8,2470.687,13.28,0.05,135.8
2021-10-19T02:13:03,42.805,6.029,0.047,-0.03,-0.012,102.0,101.0,99.0,13.3,1505.2,330.1,-0.8,1.8,2470.693,13.28,0.055,122.6
2021-10-19T02:16:03,42.805,6.029,0.038,-0.033,0.001,100.0,100.0,99.0,13.4,1505.2,327.0,-0.8,1.8,2470.701,13.28,0.05,131.0
2021-10-19T02:19:03,42.805,6.029,0.038,-0.024,-0.031,101.0,100.0,99.0,13.4,1505.2,330.6,-0.8,1.8,2470.626,13.28,0.044,122.3
2021-10-19T02:22:03,42.805,6.029,0.02,-0.025,-0.015,100.0,100.0,100.0,13.4,1505.2,329.7,-0.8,1.8,2470.66,13.28,0.032,141.3
2021-10-19T02:25:03,42.805,6.029,0.023,-0.015,0.004,101.0,101.0,100.0,13.4,1505.2,329.7,-0.8,1.9,2470.725,13.28,0.027,123.1
2021-10-19T02:28:03,42.805,6.029,0.03,-0.03,-0.018,101.0,100.0,100.0,13.4,1505.2,327.7,-0.7,1.8,2470.668,13.28,0.042,135.0
2021-10-19T02:31:03,42.805,6.029,0.05,-0.012,0.012,100.0,100.0,100.0,13.4,1505.2,326.1,-0.7,1.8,2470.714,13.28,0.051,103.5
2021-10-19T02:34:03,42.805,6.029,0.032,-0.022,0.004,101.0,101.0,100.0,13.3,1505.2,327.4,-0.7,1.8,2470.666,13.28,0.038,124.5
2021-10-19T02:37:03,42.805,6.029,0.033,-0.03,-0.022,101.0,100.0,99.0,13.4,1505.2,328.9,-0.8,1.9,2470.644,13.28,0.044,132.3
2021-10-19T02:40:03,42.805,6.029,0.041,-0.031,-0.012,100.0,101.0,99.0,13.4,1505.2,331.0,-0.7,1.9,2470.577,13.28,0.051,127.1
2021-10-19T02:43:03,42.805,6.029,0.045,-0.018,-0.02,101.0,100.0,100.0,13.4,1505.2,331.1,-0.7,1.8,2470.525,13.28,0.048,111.8
2021-10-19T02:46:03,42.805,6.029,0.062,-0.027,-0.02,101.0,100.0,100.0,13.3,1505.2,330.7,-0.7,1.8,2470.507,13.28,0.067,113.5
2021-10-19T02:49:03,42.805,6.029,0.035,-0.034,-0.015,101.0,101.0,100.0,13.3,1505.2,328.8,-0.8,1.8,2470.542,13.28,0.048,134.2
2021-10-19T02:52:03,42.805,6.029,0.029,-0.049,-0.03,102.0,100.0,100.0,13.4,1505.2,330.4,-0.7,1.9,2470.454,13.28,0.056,149.4
2021-10-19T02:55:03,42.805,6.029,0.03,-0.031,-0.018,101.0,101.0,100.0,13.4,1505.2,326.9,-0.8,1.8,2470.476,13.28,0.043,135.9
2021-10-19T02:58:03,42.805,6.029,0.029,-0.038,-0.024,100.0,100.0,99.0,13.4,1505.2,325.6,-0.8,1.8,2470.504,13.28,0.047,142.7
2021-10-19T03:04:03,42.805,6.029,0.03,-0.064,-0.059,100.0,100.0,100.0,13.4,1505.2,331.3,-0.8,1.8,2470.653,13.28,0.07,154.9
2021-10-19T03:07:03,42.805,6.029,0.025,-0.036,-0.028,100.0,100.0,100.0,13.4,1505.2,325.1,-0.8,1.8,2470.619,13.28,0.043,145.2
2021-10-19T03:10:03,42.805,6.029,0.023,-0.03,-0.024,99.0,101.0,100.0,13.4,1505.2,329.8,-0.7,1.8,2470.654,13.28,0.037,142.5
2021-10-19T03:13:03,42.805,6.029,0.024,-0.016,-0.03,101.0,100.0,100.0,13.4,1505.2,328.4,-0.8,1.8,2470.664,13.28,0.028,123.7
2021-10-19T03:16:03,42.805,6.029,0.007,-0.018,-0.019,100.0,100.0,100.0,13.4,1505.2,329.6,-0.7,1.8,2470.608,13.28,0.019,158.8
2021-10-19T03:19:03,42.805,6.029,0.058,-0.023,0.001,101.0,100.0,99.0,13.3,1505.2,325.7,-0.7,1.8,2470.678,13.28,0.062,111.6
2021-10-19T03:22:03,42.805,6.029,0.024,-0.013,-0.013,101.0,100.0,100.0,13.4,1505.2,327.6,-0.7,1.8,2470.665,13.28,0.027,118.4
2021-10-19T03:25:03,42.805,6.029,0.028,-0.044,-0.039,100.0,100.0,99.0,13.3,1505.2,329.9,-0.7,1.8,2470.667,13.28,0.052,147.5
2021-10-19T03:28:03,42.805,6.029,0.015,-0.026,-0.04,100.0,99.0,99.0,13.4,1505.2,329.7,-0.8,1.8,2470.705,13.28,0.03,150.0
2021-10-19T03:31:03,42.805,6.029,0.023,-0.03,-0.027,100.0,100.0,100.0,13.4,1505.2,327.3,-0.8,1.8,2470.697,13.28,0.037,142.5
2021-10-19T03:34:03,42.805,6.029,0.033,-0.022,0.0,101.0,101.0,99.0,13.4,1505.2,329.1,-0.7,1.8,2470.684,13.28,0.039,123.7
2021-10-19T03:37:03,42.805,6.029,0.055,-0.054,-0.038,104.0,100.0,99.0,13.4,1505.2,331.6,-0.8,1.8,2470.696,13.28,0.077,134.5
2021-10-19T03:40:03,42.805,6.029,0.016,-0.029,-0.009,98.0,100.0,101.0,13.4,1505.2,331.6,-0.7,1.8,2470.683,13.28,0.033,151.1
2021-10-19T03:43:03,42.805,6.029,0.022,-0.05,-0.044,101.0,101.0,100.0,13.3,1505.2,326.6,-0.8,1.8,2470.714,13.28,0.054,156.3
2021-10-19T03:46:03,42.805,6.029,0.018,-0.024,-0.012,102.0,98.0,100.0,13.3,1505.2,326.7,-0.7,1.8,2470.726,13.28,0.03,143.1
2021-10-19T03:49:03,42.805,6.029,0.036,-0.026,-0.037,101.0,101.0,99.0,13.4,1505.2,327.1,-0.7,1.9,2470.687,13.28,0.044,125.8
2021-10-19T03:52:03,42.805,6.029,0.025,-0.033,-0.02,100.0,100.0,100.0,13.3,1505.2,325.8,-0.8,1.8,2470.688,13.28,0.041,142.8
2021-10-19T03:55:03,42.805,6.029,0.024,-0.031,-0.016,102.0,98.0,99.0,13.4,1505.2,328.4,-0.7,1.8,2470.719,13.28,0.039,142.3
2021-10-19T03:58:03,42.805,6.029,0.023,-0.017,-0.002,101.0,99.0,100.0,13.4,1505.2,328.0,-0.7,1.8,2470.719,13.28,0.028,126.5
2021-10-19T04:04:03,42.805,6.029,0.031,-0.048,-0.021,101.0,101.0,98.0,13.4,1505.2,325.1,-0.7,1.8,2470.771,13.28,0.057,147.1
2021-10-19T04:07:03,42.805,6.029,0.032,-0.035,-0.015,101.0,101.0,99.0,13.3,1505.2,330.6,-0.8,1.8,2470.766,13.28,0.047,137.6
2021-10-19T04:10:03,42.805,6.029,0.03,-0.007,0.002,101.0,100.0,100.0,13.3,1505.2,327.9,-0.8,1.8,2470.798,13.28,0.03,103.1
2021-10-19T04:13:03,42.805,6.029,0.039,-0.03,-0.043,99.0,100.0,100.0,13.3,1505.2,330.7,-0.8,1.8,2470.786,13.28,0.049,127.6
2021-10-19T04:16:03,42.805,6.029,0.042,-0.035,-0.021,100.0,100.0,99.0,13.3,1505.2,328.3,-0.8,1.8,2470.802,13.28,0.054,129.8
2021-10-19T04:19:03,42.805,6.029,0.029,-0.035,-0.006,102.0,98.0,100.0,13.4,1505.2,328.2,-0.7,1.8,2470.735,13.28,0.045,140.4
2021-10-19T04:22:03,42.805,6.029,0.025,-0.039,-0.044,102.0,100.0,98.0,13.4,1505.2,328.2,-0.8,1.8,2470.727,13.28,0.046,147.3
2021-10-19T04:25:03,42.805,6.029,0.042,-0.049,-0.037,101.0,100.0,99.0,13.4,1505.2,329.6,-0.8,1.8,2470.75,13.28,0.064,139.4
2021-10-19T04:28:03,42.805,6.029,0.039,-0.017,0.009,99.0,101.0,99.0,13.4,1505.2,328.6,-0.7,1.8,2470.804,13.28,0.042,113.5
2021-10-19T04:31:03,42.805,6.029,0.023,-0.011,-0.01,100.0,101.0,100.0,13.4,1505.2,327.6,-0.7,1.8,2470.771,13.28,0.025,115.6
2021-10-19T04:34:03,42.805,6.029,0.002,-0.006,0.013,101.0,101.0,100.0,13.3,1505.2,327.0,-0.8,1.9,2470.79,13.28,0.006,161.6
2021-10-19T04:37:03,42.805,6.029,0.053,-0.012,-0.002,100.0,101.0,100.0,13.4,1505.2,328.7,-0.8,1.9,2470.767,13.28,0.054,102.8
2021-10-19T04:40:03,42.805,6.029,0.023,-0.012,-0.016,101.0,101.0,100.0,13.3,1505.2,327.1,-0.8,1.8,2470.765,13.28,0.025,117.6
2021-10-19T04:43:03,42.805,6.029,0.032,-0.035,-0.051,101.0,101.0,99.0,13.3,1505.2,330.4,-0.8,1.8,2470.745,13.28,0.047,137.6
2021-10-19T04:46:03,42.805,6.029,0.011,-0.025,-0.042,101.0,98.0,100.0,13.4,1505.2,326.3,-0.8,1.8,2470.77,13.28,0.027,156.3
2021-10-19T04:49:03,42.805,6.029,0.03,-0.03,-0.017,101.0,100.0,100.0,13.3,1505.2,328.3,-0.7,1.8,2470.751,13.28,0.042,135.0
2021-10-19T04:52:03,42.805,6.029,0.034,-0.041,-0.033,100.0,100.0,100.0,13.4,1505.2,329.6,-0.7,1.8,2470.805,13.28,0.053,140.3
2021-10-19T04:55:03,42.805,6.029,0.033,-0.04,-0.007,101.0,101.0,100.0,13.4,1505.2,326.4,-0.8,1.8,2470.771,13.28,0.051,140.5
2021-10-19T04:58:03,42.805,6.029,0.05,-0.031,-0.004,100.0,100.0,100.0,13.3,1505.2,330.3,-0.8,1.8,2470.769,13.28,0.058,121.8
2021-10-19T05:04:03,42.805,6.029,0.021,-0.019,0.023,101.0,100.0,100.0,13.4,1505.2,327.2,-0.7,1.8,2470.807,13.28,0.028,132.1
2021-10-19T05:07:03,42.805,6.029,0.033,-0.019,-0.02,101.0,101.0,100.0,13.4,1505.2,329.8,-0.8,1.8,2470.811,13.28,0.038,119.9
2021-10-19T05:10:03,42.805,6.029,0.039,-0.025,-0.007,102.0,101.0,99.0,13.4,1505.2,331.9,-0.8,1.8,2470.741,13.28,0.046,122.7
2021-10-19T05:13:03,42.805,6.029,0.022,-0.043,-0.038,100.0,101.0,100.0,13.4,1505.2,326.0,-0.8,1.8,2470.768,13.28,0.048,152.9
2021-10-19T05:16:03,42.805,6.029,0.025,-0.029,-0.01,101.0,101.0,101.0,13.3,1505.2,327.0,-0.8,1.8,2470.805,13.28,0.038,139.2
2021-10-19T05:19:03,42.805,6.029,0.019,-0.024,-0.025,100.0,101.0,100.0,13.4,1505.2,331.2,-0.7,1.9,2470.771,13.28,0.03,141.6
2021-10-19T05:22:03,42.805,6.029,0.035,-0.025,0.022,100.0,100.0,100.0,13.4,1505.2,328.6,-0.8,1.8,2470.777,13.28,0.043,125.5
2021-10-19T05:25:03,42.805,6.029,0.024,-0.005,-0.021,102.0,102.0,99.0,13.4,1505.2,325.1,-0.7,1.8,2470.819,13.28,0.024,101.8
2021-10-19T05:28:03,42.805,6.029,0.023,0.002,0.003,100.0,103.0,99.0,13.4,1505.2,330.1,-0.7,1.8,2470.819,13.28,0.023,85.0
2021-10-19T05:31:03,42.805,6.029,0.027,-0.03,-0.032,101.0,100.0,100.0,13.4,1505.2,329.7,-0.7,1.8,2470.783,13.28,0.04,138.0
2021-10-19T05:34:03,42.805,6.029,0.019,-0.032,-0.045,100.0,100.0,100.0,13.3,1505.2,330.9,-0.7,1.8,2470.779,13.28,0.037,149.3
2021-10-19T05:37:03,42.805,6.029,0.031,-0.017,-0.026,101.0,102.0,100.0,13.4,1505.2,329.8,-0.8,1.8,2470.796,13.28,0.035,118.7
2021-10-19T05:40:03,42.805,6.029,0.038,-0.021,-0.01,101.0,100.0,101.0,13.3,1505.2,330.1,-0.7,1.8,2470.779,13.28,0.043,118.9
2021-10-19T05:43:03,42.805,6.029,0.036,-0.005,0.003,101.0,102.0,100.0,13.3,1505.2,327.3,-0.8,1.8,2470.775,13.28,0.036,97.9
2021-10-19T05:46:03,42.805,6.029,0.034,-0.026,-0.049,100.0,101.0,100.0,13.3,1505.2,328.1,-0.8,1.8,2470.771,13.28,0.042,127.4
2021-10-19T05:49:03,42.805,6.029,0.005,-0.027,-0.017,101.0,100.0,99.0,13.3,1505.2,325.7,-0.7,1.8,2470.826,13.28,0.027,169.5
2021-10-19T05:52:03,42.805,6.029,0.026,-0.019,-0.008,100.0,100.0,101.0,13.4,1505.2,331.9,-0.8,1.8,2470.834,13.28,0.032,126.2
2021-10-19T05:55:03,42.805,6.029,0.04,-0.033,-0.049,101.0,101.0,99.0,13.4,1505.2,331.2,-0.7,1.8,2470.778,13.28,0.051,129.5
2021-10-19T05:58:03,42.805,6.029,0.03,-0.02,-0.019,100.0,101.0,100.0,13.4,1505.2,327.5,-0.7,1.8,2470.795,13.28,0.036,123.7
2021-10-19T06:04:03,42.805,6.029,0.037,-0.043,-0.005,101.0,101.0,100.0,13.4,1505.2,326.0,-0.8,1.8,2470.831,13.28,0.056,139.3
2021-10-19T06:07:03,42.805,6.029,0.021,-0.001,-0.024,101.0,101.0,100.0,13.4,1505.2,328.3,-0.7,1.8,2470.833,13.28,0.021,92.7
2021-10-19T06:10:03,42.805,6.029,0.005,-0.038,-0.026,101.0,101.0,100.0,13.3,1505.2,329.9,-0.8,1.8,2470.817,13.28,0.038,172.5
2021-10-19T06:13:03,42.805,6.029,0.02,-0.022,-0.005,101.0,101.0,99.0,13.4,1505.2,330.9,-0.7,1.8,2470.852,13.28,0.029,137.7
2021-10-19T06:16:03,42.805,6.029,0.009,-0.027,-0.035,101.0,100.0,101.0,13.4,1505.2,328.3,-0.7,1.8,2470.83,13.28,0.028,161.6
2021-10-19T06:19:03,42.805,6.029,0.047,-0.029,-0.002,100.0,101.0,100.0,13.3,1505.2,328.4,-0.8,1.8,2470.834,13.28,0.055,121.7
2021-10-19T06:22:03,42.805,6.029,0.038,-0.009,-0.01,100.0,102.0,100.0,13.4,1505.2,330.9,-0.8,1.8,2470.833,13.28,0.039,103.3
2021-10-19T06:25:03,42.805,6.029,0.021,-0.032,-0.02,101.0,101.0,100.0,13.3,1505.2,329.5,-0.7,1.8,2470.805,13.28,0.038,146.7
2021-10-19T06:28:03,42.805,6.029,0.026,-0.042,-0.033,100.0,100.0,100.0,13.3,1505.2,326.5,-0.8,1.8,2470.815,13.28,0.049,148.2
2021-10-19T06:31:03,42.805,6.029,0.03,-0.007,0.001,103.0,100.0,100.0,13.4,1505.2,327.9,-0.8,1.8,2470.814,13.28,0.03,103.1
2021-10-19T06:34:03,42.805,6.029,0.027,-0.002,0.004,101.0,100.0,100.0,13.4,1505.2,328.1,-0.8,1.8,2470.802,13.28,0.027,94.2
2021-10-19T06:37:03,42.805,6.029,0.031,-0.02,-0.021,101.0,100.0,100.0,13.3,1505.2,329.9,-0.7,1.8,2470.827,13.28,0.036,122.8
2021-10-19T06:40:03,42.805,6.029,0.035,-0.019,0.0,101.0,100.0,100.0,13.4,1505.2,325.7,-0.7,1.8,2470.791,13.28,0.039,118.5
2021-10-19T06:43:03,42.805,6.029,0.034,-0.024,-0.052,101.0,99.0,101.0,13.4,1505.2,325.9,-0.8,1.9,2470.765,13.28,0.041,125.2
2021-10-19T06:46:03,42.805,6.029,0.02,-0.026,-0.011,102.0,100.0,100.0,13.4,1505.2,331.0,-0.7,1.8,2470.791,13.28,0.032,142.4
2021-10-19T06:49:03,42.805,6.029,0.028,-0.051,-0.007,100.0,99.0,101.0,13.3,1505.2,327.9,-0.8,1.8,2470.793,13.28,0.058,151.2
2021-10-19T06:52:03,42.805,6.029,-0.003,-0.013,-0.025,101.0,100.0,100.0,13.3,1505.2,330.0,-0.8,1.8,2470.807,13.28,0.013,193.0
2021-10-19T06:55:03,42.805,6.029,-0.009,-0.016,-0.047,100.0,102.0,100.0,13.4,1505.2,329.0,-0.8,1.8,2470.822,13.28,0.018,209.4
2021-10-19T06:58:03,42.805,6.029,0.005,-0.006,-0.02,100.0,101.0,100.0,13.4,1505.2,326.9,-0.8,1.8,2470.799,13.28,0.007,140.2
2021-10-19T07:04:03,42.805,6.029,0.016,-0.036,-0.034,101.0,101.0,101.0,13.4,1505.2,325.7,-0.8,1.8,2470.867,13.28,0.039,156.0
2021-10-19T07:07:03,42.805,6.029,0.033,-0.032,-0.025,101.0,100.0,100.0,13.4,1505.2,326.4,-0.8,1.8,2470.84,13.28,0.045,134.1
2021-10-19T07:10:03,42.805,6.029,0.032,-0.038,-0.027,101.0,101.0,100.0,13.3,1505.2,328.9,-0.7,1.8,2470.841,13.28,0.049,139.9
2021-10-19T07:13:03,42.805,6.029,0.019,-0.022,-0.006,100.0,102.0,100.0,13.4,1505.2,328.5,-0.8,1.8,2470.842,13.28,0.029,139.2
2021-10-19T07:16:03,42.805,6.029,0.008,-0.026,-0.025,102.0,102.0,100.0,13.3,1505.2,328.3,-0.8,1.8,2470.81,13.28,0.027,162.9
2021-10-19T07:19:03,42.805,6.029,0.014,-0.006,-0.002,101.0,101.0,99.0,13.4,1505.2,327.3,-0.7,1.8,2470.838,13.28,0.015,113.2
2021-10-19T07:22:03,42.805,6.029,0.029,-0.018,-0.032,101.0,100.0,100.0,13.4,1505.2,327.2,-0.8,1.8,2470.795,13.28,0.034,121.8
2021-10-19T07:25:03,42.805,6.029,0.033,-0.031,0.01,100.0,101.0,101.0,13.4,1505.2,327.9,-0.7,1.8,2470.795,13.28,0.045,133.2
2021-10-19T07:28:03,42.805,6.029,0.023,-0.02,-0.023,100.0,101.0,101.0,13.3,1505.2,330.8,-0.8,1.8,2470.808,13.28,0.03,131.0
2021-10-19T07:31:03,42.805,6.029,0.011,-0.019,-0.028,100.0,101.0,100.0,13.3,1505.2,326.2,-0.8,1.8,2470.802,13.28,0.021,149.9
2021-10-19T07:34:03,42.805,6.029,-0.002,-0.013,-0.015,102.0,102.0,99.0,13.4,1505.2,330.2,-0.8,1.8,2470.829,13.28,0.013,188.7
2021-10-19T07:37:03,42.805,6.029,0.027,-0.033,-0.009,101.0,101.0,100.0,13.3,1505.2,330.6,-0.7,1.8,2470.793,13.28,0.042,140.7
2021-10-19T07:40:03,42.805,6.029,0.012,-0.02,-0.032,101.0,100.0,100.0,13.3,1505.2,326.8,-0.8,1.8,2470.832,13.28,0.023,149.0
2021-10-19T07:43:03,42.805,6.029,0.001,-0.023,-0.053,100.0,100.0,100.0,13.4,1505.2,327.0,-0.8,1.8,2470.807,13.28,0.023,177.5
2021-10-19T07:46:03,42.805,6.029,0.014,-0.004,-0.01,101.0,100.0,100.0,13.4,1505.2,327.4,-0.7,1.8,2470.798,13.28,0.014,105.9
2021-10-19T07:49:03,42.805,6.029,0.033,-0.017,-0.023,100.0,101.0,100.0,13.3,1505.2,328.7,-0.8,1.8,2470.774,13.28,0.037,117.3
2021-10-19T07:52:03,42.805,6.029,0.018,-0.026,-0.042,101.0,101.0,101.0,13.3,1505.2,331.4,-0.7,1.8,2470.812,13.28,0.031,145.3
2021-10-19T07:55:03,42.805,6.029,0.01,-0.015,-0.004,101.0,101.0,100.0,13.4,1505.2,328.2,-0.8,1.8,2470.795,13.28,0.018,146.3
2021-10-19T07:58:03,42.805,6.029,0.02,0.003,0.02,101.0,101.0,100.0,13.4,1505.2,328.4,-0.8,1.8,2470.8,13.28,0.02,81.5
2021-10-19T08:04:03,42.805,6.029,0.027,-0.021,-0.042,101.0,103.0,100.0,13.4,1505.2,325.4,-0.7,1.8,2470.792,13.28,0.034,127.9
2021-10-19T08:07:03,42.805,6.029,0.018,-0.019,-0.031,103.0,101.0,99.0,13.4,1505.2,328.2,-0.8,1.7,2470.836,13.28,0.026,136.5
2021-10-19T08:10:03,42.805,6.029,0.019,-0.04,-0.011,103.0,100.0,100.0,13.4,1505.2,328.4,-0.7,1.8,2470.806,13.28,0.044,154.6
2021-10-19T08:13:03,42.805,6.029,0.017,-0.024,-0.027,101.0,101.0,100.0,13.4,1505.2,327.9,-0.8,1.8,2470.824,13.28,0.029,144.7
2021-10-19T08:16:03,42.805,6.029,0.021,-0.027,-0.006,101.0,100.0,100.0,13.4,1505.2,328.6,-0.7,1.8,2470.771,13.28,0.034,142.1
2021-10-19T08:19:03,42.805,6.029,0.003,-0.015,-0.039,100.0,101.0,100.0,13.4,1505.2,327.5,-0.7,1.9,2470.811,13.28,0.015,168.7
2021-10-19T08:22:03,42.805,6.029,0.025,-0.012,-0.006,101.0,100.0,100.0,13.4,1505.2,327.9,-0.8,1.8,2470.763,13.28,0.027,115.6
2021-10-19T08:25:03,42.805,6.029,0.043,-0.019,-0.02,101.0,101.0,100.0,13.3,1505.2,325.7,-0.8,1.8,2470.756,13.28,0.047,113.8
2021-10-19T08:28:03,42.805,6.029,0.03,-0.028,-0.008,101.0,101.0,100.0,13.3,1505.2,327.7,-0.7,1.8,2470.795,13.28,0.041,133.0
2021-10-19T08:31:03,42.805,6.029,0.04,-0.017,-0.026,101.0,101.0,99.0,13.3,1505.2,325.6,-0.8,1.9,2470.789,13.28,0.043,113.0
2021-10-19T08:34:03,42.805,6.029,0.027,-0.017,-0.013,101.0,100.0,101.0,13.4,1505.2,331.2,-0.7,1.8,2470.784,13.28,0.031,122.2
2021-10-19T08:37:03,42.805,6.029,0.015,-0.011,-0.029,100.0,100.0,100.0,13.4,1505.2,327.3,-0.7,1.8,2470.737,13.28,0.018,126.3
2021-10-19T08:40:03,42.805,6.029,0.046,-0.028,0.015,100.0,100.0,100.0,13.3,1505.2,329.7,-0.8,1.8,2470.714,13.28,0.053,121.3
2021-10-19T08:43:03,42.805,6.029,0.018,-0.033,-0.034,102.0,100.0,101.0,13.3,1505.2,330.2,-0.7,1.8,2470.73,13.28,0.037,151.4
2021-10-19T08:46:03,42.805,6.029,0.009,-0.024,-0.012,101.0,101.0,100.0,13.4,1505.2,328.0,-0.7,1.8,2470.717,13.28,0.025,159.4
2021-10-19T08:49:03,42.805,6.029,0.027,-0.033,-0.014,101.0,100.0,100.0,13.4,1505.2,329.6,-0.7,1.8,2470.767,13.28,0.042,140.7
2021-10-19T08:52:03,42.805,6.029,0.011,-0.046,-0.027,101.0,101.0,100.0,13.4,1505.2,325.9,-0.7,1.8,2470.727,13.28,0.047,166.6
2021-10-19T08:55:03,42.805,6.029,0.019,-0.025,-0.011,101.0,101.0,100.0,13.4,1505.2,331.6,-0.8,1.8,2470.756,13.28,0.031,142.8
2021-10-19T08:58:03,42.805,6.029,0.025,-0.007,-0.001,101.0,101.0,100.0,13.4,1505.2,325.9,-0.8,1.8,2470.769,13.28,0.025,105.6
2021-10-19T09:04:03,42.805,6.029,0.021,-0.001,-0.016,102.0,101.0,100.0,13.4,1505.2,331.6,-0.7,1.8,2470.773,13.28,0.021,92.7
2021-10-19T09:07:03,42.805,6.029,0.023,-0.021,-0.017,103.0,100.0,100.0,13.4,1505.2,327.8,-0.8,1.8,2470.789,13.28,0.031,132.4
2021-10-19T09:10:03,42.805,6.029,0.039,-0.023,-0.011,101.0,101.0,100.0,13.3,1505.2,326.7,-0.8,1.8,2470.783,13.28,0.045,120.5
2021-10-19T09:13:03,42.805,6.029,0.033,-0.033,-0.055,102.0,101.0,99.0,13.4,1505.2,327.5,-0.8,1.8,2470.686,13.28,0.046,135.0
2021-10-19T09:16:03,42.805,6.029,0.005,-0.037,0.0,101.0,99.0,100.0,13.3,1505.2,331.1,-0.7,1.8,2470.657,13.28,0.037,172.3
2021-10-19T09:19:03,42.805,6.029,0.014,-0.021,-0.04,102.0,101.0,100.0,13.3,1505.2,331.5,-0.8,1.8,2470.642,13.28,0.025,146.3
2021-10-19T09:22:03,42.805,6.029,0.021,-0.03,-0.032,101.0,100.0,100.0,13.3,1505.2,326.9,-0.7,1.8,2470.579,13.28,0.036,145.0
2021-10-19T09:25:03,42.805,6.029,0.025,-0.031,-0.055,101.0,101.0,100.0,13.4,1505.2,331.6,-0.8,1.8,2470.46,13.28,0.039,141.1
2021-10-19T09:28:03,42.805,6.029,0.013,-0.036,0.01,102.0,101.0,100.0,13.3,1505.2,328.5,-0.8,1.8,2470.568,13.28,0.038,160.1
2021-10-19T09:31:03,42.805,6.029,0.006,-0.005,0.001,102.0,100.0,100.0,13.3,1505.2,331.2,-0.8,1.8,2470.588,13.28,0.007,129.8
2021-10-19T09:34:03,42.805,6.029,0.02,-0.023,-0.029,101.0,101.0,100.0,13.3,1505.2,326.8,-0.7,1.8,2470.647,13.28,0.03,139.0
2021-10-19T09:37:03,42.805,6.029,0.006,-0.019,0.016,101.0,101.0,100.0,13.4,1505.2,330.0,-0.7,1.8,2470.618,13.28,0.019,162.5
2021-10-19T09:40:03,42.805,6.029,0.008,-0.026,-0.04,100.0,101.0,100.0,13.4,1505.2,327.9,-0.7,1.8,2470.654,13.28,0.027,162.9
2021-10-19T09:43:03,42.805,6.029,0.019,-0.037,-0.044,100.0,101.0,100.0,13.3,1505.2,327.7,-0.8,1.8,2470.658,13.28,0.041,152.8
2021-10-19T09:46:03,42.805,6.029,0.024,-0.042,-0.027,102.0,100.0,100.0,13.4,1505.2,329.7,-0.7,1.8,2470.625,13.28,0.048,150.3
2021-10-19T09:49:03,42.805,6.029,0.03,-0.021,0.001,101.0,101.0,100.0,13.3,1505.2,327.4,-0.7,1.8,2470.678,13.28,0.036,125.0
2021-10-19T09:52:03,42.805,6.029,0.018,-0.023,-0.026,101.0,101.0,100.0,13.3,1505.2,331.0,-0.8,1.8,2470.692,13.28,0.029,142.0
2021-10-19T09:55:03,42.805,6.029,0.017,-0.019,-0.011,101.0,101.0,100.0,13.3,1505.2,331.2,-0.7,1.8,2470.728,13.28,0.025,138.2